Tracking 21679 objects as of 30-Oct-2020
HD Live streaming from Space Station
objects crossing your sky now

STTW-T2

Track STTW-T2 now!
STTW-T2 is classified as:


NORAD ID: 14899
Int'l Code: 1984-035A
Perigee: 35,780.3 km
Apogee: 35,853.2 km
Inclination: 12.9 °
Period: 1,437.3 minutes
Semi major axis: 42187 km
RCS: 3.981 m2 (large)
Launch date: April 8, 1984
Source: People's Republic of China (PRC)
Launch site: Xichang Space Center, China (XSC)
aabbcc
Your satellite tracking list
Your tracking list is empty




NASA's NSSDC Master Catalog

Two Line Element Set (TLE):
1 14899U 84035A   20304.22688628 +.00000130 +00000-0 +00000-0 0  9996
2 14899 012.8755 333.9926 0008643 124.8507 059.5954 01.00189826026756
Source of the keplerian elements: AFSPC